owner,sensor,date,latitude,longitude,air_pressure(mBar),qcFlag 
TABS,ioos:station:wmo:42045:1,2019-02-01T00:00:00Z,26.2168,-96.4998,1014.62,11111222 
TABS,ioos:station:wmo:42045:1,2019-02-01T00:30:00Z,26.2168,-96.4998,1014.54,11111222 
TABS,ioos:station:wmo:42045:1,2019-02-01T01:00:00Z,26.2168,-96.4998,1014.71,11111222 
TABS,ioos:station:wmo:42045:1,2019-02-01T01:30:00Z,26.2168,-96.4998,1015.68,11111222 
TABS,ioos:station:wmo:42045:1,2019-02-01T02:00:00Z,26.2168,-96.4998,1016.04,11111222 
TABS,ioos:station:wmo:42045:1,2019-02-01T02:30:00Z,26.2168,-96.4998,1016.71,11111222 
TABS,ioos:station:wmo:42045:1,2019-02-01T03:00:00Z,26.2168,-96.4998,1017.0,11111222 
TABS,ioos:station:wmo:42045:1,2019-02-01T03:30:00Z,26.2168,-96.4998,1017.25,11111222 
TABS,ioos:station:wmo:42045:1,2019-02-01T04:00:00Z,26.2168,-96.4998,1017.18,11111222 
TABS,ioos:station:wmo:42045:1,2019-02-01T04:30:00Z,26.2168,-96.4998,1016.96,11111222 
TABS,ioos:station:wmo:42045:1,2019-02-01T05:00:00Z,26.2168,-96.4998,1016.97,11111222 
TABS,ioos:station:wmo:42045:1,2019-02-01T05:30:00Z,26.2168,-96.4998,1016.96,11111222 
TABS,ioos:station:wmo:42045:1,2019-02-01T06:00:00Z,26.2168,-96.4998,1016.52,11111222 
TABS,ioos:station:wmo:42045:1,2019-02-01T06:30:00Z,26.2168,-96.4998,1016.5,11111222 
TABS,ioos:station:wmo:42045:1,2019-02-01T07:00:00Z,26.2168,-96.4998,1016.42,11111222 
TABS,ioos:station:wmo:42045:1,2019-02-01T07:30:00Z,26.2168,-96.4998,1016.58,11111222 
TABS,ioos:station:wmo:42045:1,2019-02-01T08:00:00Z,26.2168,-96.4998,1016.96,11111222 
TABS,ioos:station:wmo:42045:1,2019-02-01T08:30:00Z,26.2168,-96.4998,1016.61,11111222 
TABS,ioos:station:wmo:42045:1,2019-02-01T09:00:00Z,26.2168,-96.4998,1016.13,11111222 
TABS,ioos:station:wmo:42045:1,2019-02-01T09:30:00Z,26.2168,-96.4998,1016.49,11111222 
TABS,ioos:station:wmo:42045:1,2019-02-01T10:00:00Z,26.2168,-96.4998,1016.6,11111222 
TABS,ioos:station:wmo:42045:1,2019-02-01T10:30:00Z,26.2168,-96.4998,1016.24,11111222 
TABS,ioos:station:wmo:42045:1,2019-02-01T11:00:00Z,26.2168,-96.4998,1016.54,11111222 
TABS,ioos:station:wmo:42045:1,2019-02-01T11:30:00Z,26.2168,-96.4998,1016.42,11111222 
TABS,ioos:station:wmo:42045:1,2019-02-01T12:00:00Z,26.2168,-96.4998,1016.27,11111222 
TABS,ioos:station:wmo:42045:1,2019-02-01T12:30:00Z,26.2168,-96.4998,1017.21,11111222 
TABS,ioos:station:wmo:42045:1,2019-02-01T13:00:00Z,26.2168,-96.4998,1017.63,11111222 
TABS,ioos:station:wmo:42045:1,2019-02-01T13:30:00Z,26.2168,-96.4998,1017.4,11111222 
TABS,ioos:station:wmo:42045:1,2019-02-01T14:00:00Z,26.2168,-96.4998,1017.67,11111222 
TABS,ioos:station:wmo:42045:1,2019-02-01T14:30:00Z,26.2168,-96.4998,1018.45,11111222 
TABS,ioos:station:wmo:42045:1,2019-02-01T15:00:00Z,26.2168,-96.4998,1018.45,11111222 
TABS,ioos:station:wmo:42045:1,2019-02-01T15:30:00Z,26.2168,-96.4998,1018.81,11111222 
TABS,ioos:station:wmo:42045:1,2019-02-01T16:00:00Z,26.2168,-96.4998,1018.9,11111222 
TABS,ioos:station:wmo:42045:1,2019-02-01T16:30:00Z,26.2168,-96.4998,1018.93,11111222 
TABS,ioos:station:wmo:42045:1,2019-02-01T17:00:00Z,26.2168,-96.4998,1018.66,11111222 
TABS,ioos:station:wmo:42045:1,2019-02-01T17:30:00Z,26.2168,-96.4998,1018.45,11111222 
TABS,ioos:station:wmo:42045:1,2019-02-01T18:00:00Z,26.2168,-96.4998,1018.43,11111222 
TABS,ioos:station:wmo:42045:1,2019-02-01T18:30:00Z,26.2168,-96.4998,1018.3,11111222 
TABS,ioos:station:wmo:42045:1,2019-02-01T19:00:00Z,26.2168,-96.4998,1017.82,11111222 
TABS,ioos:station:wmo:42045:1,2019-02-01T19:30:00Z,26.2168,-96.4998,1017.86,11111222 
TABS,ioos:station:wmo:42045:1,2019-02-01T20:00:00Z,26.2168,-96.4998,1017.22,11111222 
TABS,ioos:station:wmo:42045:1,2019-02-01T20:30:00Z,26.2168,-96.4998,1017.3,11111222 
TABS,ioos:station:wmo:42045:1,2019-02-01T21:00:00Z,26.2168,-96.4998,1017.13,11111222 
TABS,ioos:station:wmo:42045:1,2019-02-01T21:30:00Z,26.2168,-96.4998,1017.28,11111222 
TABS,ioos:station:wmo:42045:1,2019-02-01T22:00:00Z,26.2168,-96.4998,1017.29,11111222 
TABS,ioos:station:wmo:42045:1,2019-02-01T22:30:00Z,26.2168,-96.4998,1017.02,11111222 
TABS,ioos:station:wmo:42045:1,2019-02-01T23:00:00Z,26.2168,-96.4998,1017.36,11111222 
TABS,ioos:station:wmo:42045:1,2019-02-01T23:30:00Z,26.2168,-96.4998,1017.35,11111222 
TABS,ioos:station:wmo:42045:1,2019-02-02T00:00:00Z,26.2168,-96.4998,1017.19,11111222 
TABS,ioos:station:wmo:42045:1,2019-02-02T00:30:00Z,26.2168,-96.4998,1017.23,11111222 
TABS,ioos:station:wmo:42045:1,2019-02-02T01:00:00Z,26.2168,-96.4998,1017.36,11111222 
TABS,ioos:station:wmo:42045:1,2019-02-02T01:30:00Z,26.2168,-96.4998,1017.73,11111222 
TABS,ioos:station:wmo:42045:1,2019-02-02T02:00:00Z,26.2168,-96.4998,1017.92,11111222 
TABS,ioos:station:wmo:42045:1,2019-02-02T02:30:00Z,26.2168,-96.4998,1018.32,11111222 
TABS,ioos:station:wmo:42045:1,2019-02-02T03:00:00Z,26.2168,-96.4998,1018.43,11111222 
TABS,ioos:station:wmo:42045:1,2019-02-02T03:30:00Z,26.2168,-96.4998,1018.29,11111222 
TABS,ioos:station:wmo:42045:1,2019-02-02T04:00:00Z,26.2168,-96.4998,1018.62,11111222 
TABS,ioos:station:wmo:42045:1,2019-02-02T04:30:00Z,26.2168,-96.4998,1018.77,11111222 
TABS,ioos:station:wmo:42045:1,2019-02-02T05:00:00Z,26.2168,-96.4998,1018.63,11111222 
TABS,ioos:station:wmo:42045:1,2019-02-02T05:30:00Z,26.2168,-96.4998,1018.29,11111222 
TABS,ioos:station:wmo:42045:1,2019-02-02T06:00:00Z,26.2168,-96.4998,1017.87,11111222 
TABS,ioos:station:wmo:42045:1,2019-02-02T06:30:00Z,26.2168,-96.4998,1017.83,11111222 
TABS,ioos:station:wmo:42045:1,2019-02-02T07:00:00Z,26.2168,-96.4998,1017.73,11111222 
TABS,ioos:station:wmo:42045:1,2019-02-02T07:30:00Z,26.2168,-96.4998,1017.79,11111222 
TABS,ioos:station:wmo:42045:1,2019-02-02T08:00:00Z,26.2168,-96.4998,1017.82,11111222 
TABS,ioos:station:wmo:42045:1,2019-02-02T08:30:00Z,26.2168,-96.4998,1017.92,11111222 
TABS,ioos:station:wmo:42045:1,2019-02-02T09:00:00Z,26.2168,-96.4998,1017.46,11111222 
TABS,ioos:station:wmo:42045:1,2019-02-02T09:30:00Z,26.2168,-96.4998,1017.42,11111222 
TABS,ioos:station:wmo:42045:1,2019-02-02T10:00:00Z,26.2168,-96.4998,1017.06,11111222 
TABS,ioos:station:wmo:42045:1,2019-02-02T10:30:00Z,26.2168,-96.4998,1017.17,11111222 
TABS,ioos:station:wmo:42045:1,2019-02-02T11:00:00Z,26.2168,-96.4998,1017.33,11111222 
TABS,ioos:station:wmo:42045:1,2019-02-02T11:30:00Z,26.2168,-96.4998,1017.4,11111222 
TABS,ioos:station:wmo:42045:1,2019-02-02T12:00:00Z,26.2168,-96.4998,1017.69,11111222 
TABS,ioos:station:wmo:42045:1,2019-02-02T12:30:00Z,26.2168,-96.4998,1017.93,11111222 
TABS,ioos:station:wmo:42045:1,2019-02-02T13:00:00Z,26.2168,-96.4998,1018.01,11111222 
TABS,ioos:station:wmo:42045:1,2019-02-02T13:30:00Z,26.2168,-96.4998,1018.39,11111222 
TABS,ioos:station:wmo:42045:1,2019-02-02T14:00:00Z,26.2168,-96.4998,1018.21,11111222 
TABS,ioos:station:wmo:42045:1,2019-02-02T14:30:00Z,26.2168,-96.4998,1018.29,11111222 
TABS,ioos:station:wmo:42045:1,2019-02-02T15:00:00Z,26.2168,-96.4998,1018.32,11111222 
TABS,ioos:station:wmo:42045:1,2019-02-02T15:30:00Z,26.2168,-96.4998,1018.41,11111222 
TABS,ioos:station:wmo:42045:1,2019-02-02T16:00:00Z,26.2168,-96.4998,1018.65,11111222 
TABS,ioos:station:wmo:42045:1,2019-02-02T16:30:00Z,26.2168,-96.4998,1018.73,11111222 
TABS,ioos:station:wmo:42045:1,2019-02-02T17:00:00Z,26.2168,-96.4998,1018.37,11111222 
TABS,ioos:station:wmo:42045:1,2019-02-02T17:30:00Z,26.2168,-96.4998,1018.39,11111222 
TABS,ioos:station:wmo:42045:1,2019-02-02T18:00:00Z,26.2168,-96.4998,1017.92,11111222 
TABS,ioos:station:wmo:42045:1,2019-02-02T18:30:00Z,26.2168,-96.4998,1017.53,11111222 
TABS,ioos:station:wmo:42045:1,2019-02-02T19:00:00Z,26.2168,-96.4998,1016.47,11111222 
TABS,ioos:station:wmo:42045:1,2019-02-02T19:30:00Z,26.2168,-96.4998,1015.83,11111222 
TABS,ioos:station:wmo:42045:1,2019-02-02T20:00:00Z,26.2168,-96.4998,1015.72,11111222 
TABS,ioos:station:wmo:42045:1,2019-02-02T20:30:00Z,26.2168,-96.4998,1015.2,11111222 
TABS,ioos:station:wmo:42045:1,2019-02-02T21:00:00Z,26.2168,-96.4998,1015.08,11111222 
TABS,ioos:station:wmo:42045:1,2019-02-02T21:30:00Z,26.2168,-96.4998,1014.52,11111222 
TABS,ioos:station:wmo:42045:1,2019-02-02T22:00:00Z,26.2168,-96.4998,1014.55,11111222 
TABS,ioos:station:wmo:42045:1,2019-02-02T22:30:00Z,26.2168,-96.4998,1014.66,11111222 
TABS,ioos:station:wmo:42045:1,2019-02-02T23:00:00Z,26.2168,-96.4998,1014.9,11111222 
TABS,ioos:station:wmo:42045:1,2019-02-02T23:30:00Z,26.2168,-96.4998,1014.88,11111222 
TABS,ioos:station:wmo:42045:1,2019-02-03T00:00:00Z,26.2168,-96.4998,1014.98,11111222 
TABS,ioos:station:wmo:42045:1,2019-02-03T00:30:00Z,26.2168,-96.4998,1014.94,11111222 
TABS,ioos:station:wmo:42045:1,2019-02-03T01:00:00Z,26.2168,-96.4998,1014.61,11111222 
TABS,ioos:station:wmo:42045:1,2019-02-03T01:30:00Z,26.2168,-96.4998,1015.03,11111222 
TABS,ioos:station:wmo:42045:1,2019-02-03T02:00:00Z,26.2168,-96.4998,1015.71,11111222 
TABS,ioos:station:wmo:42045:1,2019-02-03T02:30:00Z,26.2168,-96.4998,1015.48,11111222 
TABS,ioos:station:wmo:42045:1,2019-02-03T03:00:00Z,26.2168,-96.4998,1015.5,11111222 
TABS,ioos:station:wmo:42045:1,2019-02-03T03:30:00Z,26.2168,-96.4998,1015.36,11111222 
TABS,ioos:station:wmo:42045:1,2019-02-03T04:00:00Z,26.2168,-96.4998,1015.43,11111222 
TABS,ioos:station:wmo:42045:1,2019-02-03T04:30:00Z,26.2168,-96.4998,1015.65,11111222 
TABS,ioos:station:wmo:42045:1,2019-02-03T05:00:00Z,26.2168,-96.4998,1015.47,11111222 
TABS,ioos:station:wmo:42045:1,2019-02-03T05:30:00Z,26.2168,-96.4998,1015.37,11111222 
TABS,ioos:station:wmo:42045:1,2019-02-03T06:00:00Z,26.2168,-96.4998,1015.48,11111222 
TABS,ioos:station:wmo:42045:1,2019-02-03T06:30:00Z,26.2168,-96.4998,1014.85,11111222 
TABS,ioos:station:wmo:42045:1,2019-02-03T07:00:00Z,26.2168,-96.4998,1014.88,11111222 
TABS,ioos:station:wmo:42045:1,2019-02-03T07:30:00Z,26.2168,-96.4998,1014.87,11111222 
TABS,ioos:station:wmo:42045:1,2019-02-03T08:00:00Z,26.2168,-96.4998,1014.73,11111222 
TABS,ioos:station:wmo:42045:1,2019-02-03T08:30:00Z,26.2168,-96.4998,1014.41,11111222 
TABS,ioos:station:wmo:42045:1,2019-02-03T09:00:00Z,26.2168,-96.4998,1013.85,11111222 
TABS,ioos:station:wmo:42045:1,2019-02-03T09:30:00Z,26.2168,-96.4998,1013.35,11111222 
TABS,ioos:station:wmo:42045:1,2019-02-03T10:00:00Z,26.2168,-96.4998,1013.43,11111222 
TABS,ioos:station:wmo:42045:1,2019-02-03T10:30:00Z,26.2168,-96.4998,1013.49,11111222 
TABS,ioos:station:wmo:42045:1,2019-02-03T11:00:00Z,26.2168,-96.4998,1013.38,11111222 
TABS,ioos:station:wmo:42045:1,2019-02-03T11:30:00Z,26.2168,-96.4998,1013.38,11111222 
TABS,ioos:station:wmo:42045:1,2019-02-03T12:00:00Z,26.2168,-96.4998,1013.7,11111222 
TABS,ioos:station:wmo:42045:1,2019-02-03T12:30:00Z,26.2168,-96.4998,1013.92,11111222 
TABS,ioos:station:wmo:42045:1,2019-02-03T13:00:00Z,26.2168,-96.4998,1014.36,11111222 
TABS,ioos:station:wmo:42045:1,2019-02-03T13:30:00Z,26.2168,-96.4998,1014.18,11111222 
TABS,ioos:station:wmo:42045:1,2019-02-03T14:00:00Z,26.2168,-96.4998,1014.35,11111222 
TABS,ioos:station:wmo:42045:1,2019-02-03T14:30:00Z,26.2168,-96.4998,1014.82,11111222 
TABS,ioos:station:wmo:42045:1,2019-02-03T15:00:00Z,26.2168,-96.4998,1014.97,11111222 
TABS,ioos:station:wmo:42045:1,2019-02-03T15:30:00Z,26.2168,-96.4998,1015.24,11111222 
TABS,ioos:station:wmo:42045:1,2019-02-03T16:00:00Z,26.2168,-96.4998,1015.48,11111222 
TABS,ioos:station:wmo:42045:1,2019-02-03T16:30:00Z,26.2168,-96.4998,1015.3,11111222 
TABS,ioos:station:wmo:42045:1,2019-02-03T17:00:00Z,26.2168,-96.4998,1015.29,11111222 
TABS,ioos:station:wmo:42045:1,2019-02-03T17:30:00Z,26.2168,-96.4998,1014.86,11111222 
TABS,ioos:station:wmo:42045:1,2019-02-03T18:00:00Z,26.2168,-96.4998,1014.36,11111222 
TABS,ioos:station:wmo:42045:1,2019-02-03T18:30:00Z,26.2168,-96.4998,1014.04,11111222 
TABS,ioos:station:wmo:42045:1,2019-02-03T19:00:00Z,26.2168,-96.4998,1013.08,11111222 
TABS,ioos:station:wmo:42045:1,2019-02-03T19:30:00Z,26.2168,-96.4998,1012.51,11111222 
TABS,ioos:station:wmo:42045:1,2019-02-03T20:00:00Z,26.2168,-96.4998,1012.04,11111222 
TABS,ioos:station:wmo:42045:1,2019-02-03T20:30:00Z,26.2168,-96.4998,1011.32,11111222 
TABS,ioos:station:wmo:42045:1,2019-02-03T21:00:00Z,26.2168,-96.4998,1011.31,11111222 
TABS,ioos:station:wmo:42045:1,2019-02-03T21:30:00Z,26.2168,-96.4998,1011.18,11111222 
TABS,ioos:station:wmo:42045:1,2019-02-03T22:00:00Z,26.2168,-96.4998,1011.37,11111222 
TABS,ioos:station:wmo:42045:1,2019-02-03T22:30:00Z,26.2168,-96.4998,1011.5,11111222 
TABS,ioos:station:wmo:42045:1,2019-02-03T23:00:00Z,26.2168,-96.4998,1011.48,11111222 
TABS,ioos:station:wmo:42045:1,2019-02-03T23:30:00Z,26.2168,-96.4998,1011.59,11111222 
TABS,ioos:station:wmo:42045:1,2019-02-04T00:00:00Z,26.2168,-96.4998,1011.7,11111222 
TABS,ioos:station:wmo:42045:1,2019-02-04T00:30:00Z,26.2168,-96.4998,1011.66,11111222 
TABS,ioos:station:wmo:42045:1,2019-02-04T01:00:00Z,26.2168,-96.4998,1011.59,11111222 
TABS,ioos:station:wmo:42045:1,2019-02-04T01:30:00Z,26.2168,-96.4998,1011.86,11111222 
TABS,ioos:station:wmo:42045:1,2019-02-04T02:00:00Z,26.2168,-96.4998,1012.18,11111222 
TABS,ioos:station:wmo:42045:1,2019-02-04T02:30:00Z,26.2168,-96.4998,1012.65,11111222 
TABS,ioos:station:wmo:42045:1,2019-02-04T03:00:00Z,26.2168,-96.4998,1012.69,11111222 
TABS,ioos:station:wmo:42045:1,2019-02-04T03:30:00Z,26.2168,-96.4998,1012.57,11111222 
TABS,ioos:station:wmo:42045:1,2019-02-04T04:00:00Z,26.2168,-96.4998,1012.66,11111222 
TABS,ioos:station:wmo:42045:1,2019-02-04T04:30:00Z,26.2168,-96.4998,1013.0,11111222 
TABS,ioos:station:wmo:42045:1,2019-02-04T05:00:00Z,26.2168,-96.4998,1012.86,11111222 
TABS,ioos:station:wmo:42045:1,2019-02-04T05:30:00Z,26.2168,-96.4998,1012.88,11111222 
TABS,ioos:station:wmo:42045:1,2019-02-04T06:00:00Z,26.2168,-96.4998,1012.64,11111222 
TABS,ioos:station:wmo:42045:1,2019-02-04T06:30:00Z,26.2168,-96.4998,1012.59,11111222 
TABS,ioos:station:wmo:42045:1,2019-02-04T07:00:00Z,26.2168,-96.4998,1012.18,11111222 
TABS,ioos:station:wmo:42045:1,2019-02-04T07:30:00Z,26.2168,-96.4998,1012.25,11111222 
TABS,ioos:station:wmo:42045:1,2019-02-04T08:00:00Z,26.2168,-96.4998,1011.98,11111222 
TABS,ioos:station:wmo:42045:1,2019-02-04T08:30:00Z,26.2168,-96.4998,1011.48,11111222 
TABS,ioos:station:wmo:42045:1,2019-02-04T09:00:00Z,26.2168,-96.4998,1011.03,11111222 
TABS,ioos:station:wmo:42045:1,2019-02-04T09:30:00Z,26.2168,-96.4998,1011.04,11111222 
TABS,ioos:station:wmo:42045:1,2019-02-04T10:00:00Z,26.2168,-96.4998,1010.98,11111222 
TABS,ioos:station:wmo:42045:1,2019-02-04T10:30:00Z,26.2168,-96.4998,1011.13,11111222 
TABS,ioos:station:wmo:42045:1,2019-02-04T11:00:00Z,26.2168,-96.4998,1011.47,11111222 
TABS,ioos:station:wmo:42045:1,2019-02-04T11:30:00Z,26.2168,-96.4998,1011.64,11111222 
TABS,ioos:station:wmo:42045:1,2019-02-04T12:00:00Z,26.2168,-96.4998,1011.82,11111222 
TABS,ioos:station:wmo:42045:1,2019-02-04T12:30:00Z,26.2168,-96.4998,1012.23,11111222 
TABS,ioos:station:wmo:42045:1,2019-02-04T13:00:00Z,26.2168,-96.4998,1012.41,11111222 
TABS,ioos:station:wmo:42045:1,2019-02-04T13:30:00Z,26.2168,-96.4998,1012.51,11111222 
TABS,ioos:station:wmo:42045:1,2019-02-04T14:00:00Z,26.2168,-96.4998,1012.66,11111222 
TABS,ioos:station:wmo:42045:1,2019-02-04T14:30:00Z,26.2168,-96.4998,1013.04,11111222 
TABS,ioos:station:wmo:42045:1,2019-02-04T15:00:00Z,26.2168,-96.4998,1013.1,11111222 
TABS,ioos:station:wmo:42045:1,2019-02-04T15:30:00Z,26.2168,-96.4998,1013.81,11111222 
TABS,ioos:station:wmo:42045:1,2019-02-04T16:00:00Z,26.2168,-96.4998,1014.07,11111222 
TABS,ioos:station:wmo:42045:1,2019-02-04T16:30:00Z,26.2168,-96.4998,1014.37,11111222 
TABS,ioos:station:wmo:42045:1,2019-02-04T17:00:00Z,26.2168,-96.4998,1014.27,11111222 
TABS,ioos:station:wmo:42045:1,2019-02-04T17:30:00Z,26.2168,-96.4998,1014.0,11111222 
TABS,ioos:station:wmo:42045:1,2019-02-04T18:00:00Z,26.2168,-96.4998,1014.12,11111222 
TABS,ioos:station:wmo:42045:1,2019-02-04T18:30:00Z,26.2168,-96.4998,1013.75,11111222 
TABS,ioos:station:wmo:42045:1,2019-02-04T19:00:00Z,26.2168,-96.4998,1013.54,11111222 
TABS,ioos:station:wmo:42045:1,2019-02-04T19:30:00Z,26.2168,-96.4998,1013.29,11111222 
TABS,ioos:station:wmo:42045:1,2019-02-04T20:00:00Z,26.2168,-96.4998,1013.03,11111222 
TABS,ioos:station:wmo:42045:1,2019-02-04T20:30:00Z,26.2168,-96.4998,1012.71,11111222 
TABS,ioos:station:wmo:42045:1,2019-02-04T21:00:00Z,26.2168,-96.4998,1012.36,11111222 
TABS,ioos:station:wmo:42045:1,2019-02-04T21:30:00Z,26.2168,-96.4998,1012.04,11111222 
TABS,ioos:station:wmo:42045:1,2019-02-04T22:00:00Z,26.2168,-96.4998,1011.76,11111222 
TABS,ioos:station:wmo:42045:1,2019-02-04T22:30:00Z,26.2168,-96.4998,1011.43,11111222 
TABS,ioos:station:wmo:42045:1,2019-02-04T23:00:00Z,26.2168,-96.4998,1011.48,11111222 
TABS,ioos:station:wmo:42045:1,2019-02-04T23:30:00Z,26.2168,-96.4998,1011.48,11111222 
TABS,ioos:station:wmo:42045:1,2019-02-05T00:00:00Z,26.2168,-96.4998,1011.3,11111222 
TABS,ioos:station:wmo:42045:1,2019-02-05T00:30:00Z,26.2168,-96.4998,1011.56,11111222 
TABS,ioos:station:wmo:42045:1,2019-02-05T01:00:00Z,26.2168,-96.4998,1011.77,11111222 
TABS,ioos:station:wmo:42045:1,2019-02-05T01:30:00Z,26.2168,-96.4998,1012.14,11111222 
TABS,ioos:station:wmo:42045:1,2019-02-05T02:00:00Z,26.2168,-96.4998,1011.85,11111222 
TABS,ioos:station:wmo:42045:1,2019-02-05T02:30:00Z,26.2168,-96.4998,1012.5,11111222 
TABS,ioos:station:wmo:42045:1,2019-02-05T03:00:00Z,26.2168,-96.4998,1012.49,11111222 
TABS,ioos:station:wmo:42045:1,2019-02-05T03:30:00Z,26.2168,-96.4998,1012.95,11111222 
TABS,ioos:station:wmo:42045:1,2019-02-05T04:00:00Z,26.2168,-96.4998,1012.86,11111222 
TABS,ioos:station:wmo:42045:1,2019-02-05T04:30:00Z,26.2168,-96.4998,1013.11,11111222 
TABS,ioos:station:wmo:42045:1,2019-02-05T05:00:00Z,26.2168,-96.4998,1013.29,11111222 
TABS,ioos:station:wmo:42045:1,2019-02-05T05:30:00Z,26.2168,-96.4998,1013.26,11111222 
TABS,ioos:station:wmo:42045:1,2019-02-05T06:00:00Z,26.2168,-96.4998,1012.92,11111222 
TABS,ioos:station:wmo:42045:1,2019-02-05T06:30:00Z,26.2168,-96.4998,1012.51,11111222 
TABS,ioos:station:wmo:42045:1,2019-02-05T07:00:00Z,26.2168,-96.4998,1012.62,11111222 
TABS,ioos:station:wmo:42045:1,2019-02-05T07:30:00Z,26.2168,-96.4998,1012.85,11111222 
TABS,ioos:station:wmo:42045:1,2019-02-05T08:00:00Z,26.2168,-96.4998,1012.7,11111222 
TABS,ioos:station:wmo:42045:1,2019-02-05T08:30:00Z,26.2168,-96.4998,1012.35,11111222 
TABS,ioos:station:wmo:42045:1,2019-02-05T09:00:00Z,26.2168,-96.4998,1012.15,11111222 
TABS,ioos:station:wmo:42045:1,2019-02-05T09:30:00Z,26.2168,-96.4998,1012.51,11111222 
TABS,ioos:station:wmo:42045:1,2019-02-05T10:00:00Z,26.2168,-96.4998,1012.65,11111222 
TABS,ioos:station:wmo:42045:1,2019-02-05T10:30:00Z,26.2168,-96.4998,1012.88,11111222 
TABS,ioos:station:wmo:42045:1,2019-02-05T11:00:00Z,26.2168,-96.4998,1012.99,11111222 
TABS,ioos:station:wmo:42045:1,2019-02-05T11:30:00Z,26.2168,-96.4998,1013.25,11111222 
TABS,ioos:station:wmo:42045:1,2019-02-05T12:00:00Z,26.2168,-96.4998,1013.37,11111222 
TABS,ioos:station:wmo:42045:1,2019-02-05T12:30:00Z,26.2168,-96.4998,1013.54,11111222 
TABS,ioos:station:wmo:42045:1,2019-02-05T13:00:00Z,26.2168,-96.4998,1013.81,11111222 
TABS,ioos:station:wmo:42045:1,2019-02-05T13:30:00Z,26.2168,-96.4998,1014.1,11111222 
TABS,ioos:station:wmo:42045:1,2019-02-05T14:00:00Z,26.2168,-96.4998,1014.59,11111222 
TABS,ioos:station:wmo:42045:1,2019-02-05T14:30:00Z,26.2168,-96.4998,1014.47,11111222 
TABS,ioos:station:wmo:42045:1,2019-02-05T15:00:00Z,26.2168,-96.4998,1014.8,11111222 
TABS,ioos:station:wmo:42045:1,2019-02-05T15:30:00Z,26.2168,-96.4998,1014.74,11111222 
TABS,ioos:station:wmo:42045:1,2019-02-05T16:00:00Z,26.2168,-96.4998,1014.84,11111222 
TABS,ioos:station:wmo:42045:1,2019-02-05T16:30:00Z,26.2168,-96.4998,1015.11,11111222 
TABS,ioos:station:wmo:42045:1,2019-02-05T17:00:00Z,26.2168,-96.4998,1014.92,11111222 
TABS,ioos:station:wmo:42045:1,2019-02-05T17:30:00Z,26.2168,-96.4998,1014.62,11111222 
TABS,ioos:station:wmo:42045:1,2019-02-05T18:00:00Z,26.2168,-96.4998,1014.71,11111222 
TABS,ioos:station:wmo:42045:1,2019-02-05T18:30:00Z,26.2168,-96.4998,1014.21,11111222 
TABS,ioos:station:wmo:42045:1,2019-02-05T19:00:00Z,26.2168,-96.4998,1013.61,11111222 
TABS,ioos:station:wmo:42045:1,2019-02-05T19:30:00Z,26.2168,-96.4998,1013.14,11111222 
TABS,ioos:station:wmo:42045:1,2019-02-05T20:00:00Z,26.2168,-96.4998,1012.63,11111222 
TABS,ioos:station:wmo:42045:1,2019-02-05T20:30:00Z,26.2168,-96.4998,1012.25,11111222 
TABS,ioos:station:wmo:42045:1,2019-02-05T21:00:00Z,26.2168,-96.4998,1011.49,11111222 
TABS,ioos:station:wmo:42045:1,2019-02-05T21:30:00Z,26.2168,-96.4998,1011.18,11111222 
TABS,ioos:station:wmo:42045:1,2019-02-05T22:00:00Z,26.2168,-96.4998,1010.63,11111222 
TABS,ioos:station:wmo:42045:1,2019-02-05T22:30:00Z,26.2168,-96.4998,1010.91,11111222 
TABS,ioos:station:wmo:42045:1,2019-02-05T23:00:00Z,26.2168,-96.4998,1011.26,11111222 
TABS,ioos:station:wmo:42045:1,2019-02-05T23:30:00Z,26.2168,-96.4998,1011.3,11111222 
TABS,ioos:station:wmo:42045:1,2019-02-06T00:00:00Z,26.2168,-96.4998,1011.19,11111222 
TABS,ioos:station:wmo:42045:1,2019-02-06T00:30:00Z,26.2168,-96.4998,1011.41,11111222 
TABS,ioos:station:wmo:42045:1,2019-02-06T01:00:00Z,26.2168,-96.4998,1011.58,11111222 
TABS,ioos:station:wmo:42045:1,2019-02-06T01:30:00Z,26.2168,-96.4998,1012.36,11111222 
TABS,ioos:station:wmo:42045:1,2019-02-06T02:00:00Z,26.2168,-96.4998,1012.19,11111222 
TABS,ioos:station:wmo:42045:1,2019-02-06T02:30:00Z,26.2168,-96.4998,1012.24,11111222 
TABS,ioos:station:wmo:42045:1,2019-02-06T03:00:00Z,26.2168,-96.4998,1012.39,11111222 
TABS,ioos:station:wmo:42045:1,2019-02-06T03:30:00Z,26.2168,-96.4998,1013.39,11111222 
TABS,ioos:station:wmo:42045:1,2019-02-06T04:00:00Z,26.2168,-96.4998,1013.28,11111222 
TABS,ioos:station:wmo:42045:1,2019-02-06T04:30:00Z,26.2168,-96.4998,1013.2,11111222 
TABS,ioos:station:wmo:42045:1,2019-02-06T05:00:00Z,26.2168,-96.4998,1013.05,11111222 
TABS,ioos:station:wmo:42045:1,2019-02-06T05:30:00Z,26.2168,-96.4998,1012.85,11111222 
TABS,ioos:station:wmo:42045:1,2019-02-06T06:00:00Z,26.2168,-96.4998,1013.06,11111222 
TABS,ioos:station:wmo:42045:1,2019-02-06T06:30:00Z,26.2168,-96.4998,1012.86,11111222 
TABS,ioos:station:wmo:42045:1,2019-02-06T07:00:00Z,26.2168,-96.4998,1013.1,11111222 
TABS,ioos:station:wmo:42045:1,2019-02-06T07:30:00Z,26.2168,-96.4998,1013.13,11111222 
TABS,ioos:station:wmo:42045:1,2019-02-06T08:00:00Z,26.2168,-96.4998,1012.92,11111222 
TABS,ioos:station:wmo:42045:1,2019-02-06T08:30:00Z,26.2168,-96.4998,1012.56,11111222 
TABS,ioos:station:wmo:42045:1,2019-02-06T09:00:00Z,26.2168,-96.4998,1012.27,11111222 
TABS,ioos:station:wmo:42045:1,2019-02-06T09:30:00Z,26.2168,-96.4998,1012.58,11111222 
TABS,ioos:station:wmo:42045:1,2019-02-06T10:00:00Z,26.2168,-96.4998,1012.6,11111222 
TABS,ioos:station:wmo:42045:1,2019-02-06T10:30:00Z,26.2168,-96.4998,1012.34,11111222 
TABS,ioos:station:wmo:42045:1,2019-02-06T11:00:00Z,26.2168,-96.4998,1012.36,11111222 
TABS,ioos:station:wmo:42045:1,2019-02-06T11:30:00Z,26.2168,-96.4998,1012.4,11111222 
TABS,ioos:station:wmo:42045:1,2019-02-06T12:00:00Z,26.2168,-96.4998,1012.5,11111222 
TABS,ioos:station:wmo:42045:1,2019-02-06T12:30:00Z,26.2168,-96.4998,1012.55,11111222 
TABS,ioos:station:wmo:42045:1,2019-02-06T13:00:00Z,26.2168,-96.4998,1012.63,11111222 
TABS,ioos:station:wmo:42045:1,2019-02-06T13:30:00Z,26.2168,-96.4998,1012.71,11111222 
TABS,ioos:station:wmo:42045:1,2019-02-06T14:00:00Z,26.2168,-96.4998,1012.92,11111222 
TABS,ioos:station:wmo:42045:1,2019-02-06T14:30:00Z,26.2168,-96.4998,1013.22,11111222 
TABS,ioos:station:wmo:42045:1,2019-02-06T15:00:00Z,26.2168,-96.4998,1013.5,11111222 
TABS,ioos:station:wmo:42045:1,2019-02-06T15:30:00Z,26.2168,-96.4998,1013.15,11111222 
TABS,ioos:station:wmo:42045:1,2019-02-06T16:00:00Z,26.2168,-96.4998,1014.08,11111222 
TABS,ioos:station:wmo:42045:1,2019-02-06T16:30:00Z,26.2168,-96.4998,1013.99,11111222 
TABS,ioos:station:wmo:42045:1,2019-02-06T17:00:00Z,26.2168,-96.4998,1014.61,11111222 
TABS,ioos:station:wmo:42045:1,2019-02-06T17:30:00Z,26.2168,-96.4998,1013.92,11111222 
TABS,ioos:station:wmo:42045:1,2019-02-06T18:00:00Z,26.2168,-96.4998,1013.5,11111222 
TABS,ioos:station:wmo:42045:1,2019-02-06T18:30:00Z,26.2168,-96.4998,1012.62,11111222 